Time,TemperatureF,DewpointF,PressureIn,WindDirection,WindDirectionDegrees,WindSpeedMPH,WindSpeedGustMPH,Humidity,HourlyPrecipIn,Conditions,Clouds,dailyrainin,SoftwareType,DateUTC
2013-04-10 00:00:00,75.7,71.6,29.62,SSE,151,16.0,25.0,87,0.00,,---,0.00,VWS V14.00,2013-04-10 05:00:00,
2013-04-10 00:05:00,75.7,71.6,29.62,SE,144,19.0,23.0,87,0.00,,---,0.00,VWS V14.00,2013-04-10 05:05:00,
2013-04-10 00:10:00,75.7,71.6,29.62,SE,145,20.0,22.0,87,0.00,,---,0.00,VWS V14.00,2013-04-10 05:10:00,
2013-04-10 00:15:00,75.7,71.6,29.62,SSE,159,18.0,21.0,87,0.00,,---,0.00,VWS V14.00,2013-04-10 05:15:00,
2013-04-10 00:20:00,75.6,71.8,29.62,SSE,153,15.0,19.0,88,0.00,,---,0.00,VWS V14.00,2013-04-10 05:20:00,
2013-04-10 00:25:00,75.6,71.8,29.62,SSE,155,20.0,20.0,88,0.00,,---,0.00,VWS V14.00,2013-04-10 05:25:00,
2013-04-10 00:30:00,75.6,71.8,29.62,SSE,159,20.0,22.0,88,0.00,,---,0.00,VWS V14.00,2013-04-10 05:30:00,
2013-04-10 00:35:00,75.6,71.5,29.62,SSE,156,15.0,20.0,87,0.00,,---,0.00,VWS V14.00,2013-04-10 05:35:00,
2013-04-10 00:40:00,75.6,71.5,29.63,SSE,151,15.0,23.0,87,0.00,,---,0.00,VWS V14.00,2013-04-10 05:40:00,
2013-04-10 00:45:00,75.6,71.5,29.63,SSE,155,15.0,20.0,87,0.00,,---,0.00,VWS V14.00,2013-04-10 05:45:00,
2013-04-10 00:50:00,75.6,71.5,29.62,SSE,159,19.0,24.0,87,0.00,,---,0.00,VWS V14.00,2013-04-10 05:50:00,
2013-04-10 00:55:00,75.6,71.5,29.63,South,169,23.0,23.0,87,0.00,,---,0.00,VWS V14.00,2013-04-10 05:55:00,
2013-04-10 01:00:00,75.6,71.5,29.63,SSE,167,21.0,21.0,87,0.00,,---,0.00,VWS V14.00,2013-04-10 06:00:00,
2013-04-10 01:05:00,75.6,71.5,29.63,SSE,153,16.0,26.0,87,0.00,,---,0.00,VWS V14.00,2013-04-10 06:05:00,
2013-04-10 01:10:00,75.5,71.4,29.63,SSE,153,19.0,19.0,87,0.00,,---,0.00,VWS V14.00,2013-04-10 06:10:00,
2013-04-10 01:15:00,75.5,71.4,29.63,SSE,166,14.0,23.0,87,0.00,,---,0.00,VWS V14.00,2013-04-10 06:15:00,
2013-04-10 01:20:00,75.6,71.5,29.63,SSE,158,16.0,21.0,87,0.00,,---,0.00,VWS V14.00,2013-04-10 06:20:00,
2013-04-10 01:25:00,75.6,71.5,29.63,South,171,19.0,26.0,87,0.00,,---,0.00,VWS V14.00,2013-04-10 06:25:00,
2013-04-10 01:30:00,75.7,71.6,29.63,SSE,159,19.0,22.0,87,0.00,,---,0.00,VWS V14.00,2013-04-10 06:30:00,
2013-04-10 01:35:00,75.7,71.6,29.62,South,171,19.0,25.0,87,0.00,,---,0.00,VWS V14.00,2013-04-10 06:35:00,
2013-04-10 01:40:00,75.8,71.3,29.62,South,169,21.0,25.0,86,0.00,,---,0.00,VWS V14.00,2013-04-10 06:40:00,
2013-04-10 01:45:00,75.8,71.3,29.62,South,178,18.0,24.0,86,0.00,,---,0.00,VWS V14.00,2013-04-10 06:45:00,
2013-04-10 01:50:00,75.7,71.2,29.62,South,179,22.0,28.0,86,0.00,,---,0.00,VWS V14.00,2013-04-10 06:50:00,
2013-04-10 01:55:00,75.7,71.2,29.62,SSE,163,19.0,22.0,86,0.00,,---,0.00,VWS V14.00,2013-04-10 06:55:00,
2013-04-10 02:00:00,75.8,71.3,29.62,South,171,18.0,25.0,86,0.00,,---,0.00,VWS V14.00,2013-04-10 07:00:00,
2013-04-10 02:05:00,75.8,71.3,29.62,South,172,16.0,20.0,86,0.00,,---,0.00,VWS V14.00,2013-04-10 07:05:00,
2013-04-10 02:10:00,75.8,71.3,29.61,SSE,160,22.0,23.0,86,0.00,,---,0.00,VWS V14.00,2013-04-10 07:10:00,
2013-04-10 02:15:00,75.8,71.3,29.61,South,182,22.0,24.0,86,0.00,,---,0.00,VWS V14.00,2013-04-10 07:15:00,
2013-04-10 02:20:00,75.8,71.3,29.61,SSE,164,23.0,25.0,86,0.00,,---,0.00,VWS V14.00,2013-04-10 07:20:00,
2013-04-10 02:25:00,75.7,71.2,29.60,South,173,26.0,32.0,86,0.00,,---,0.00,VWS V14.00,2013-04-10 07:25:00,
2013-04-10 02:30:00,75.7,71.2,29.60,South,169,20.0,28.0,86,0.00,,---,0.00,VWS V14.00,2013-04-10 07:30:00,
2013-04-10 02:35:00,75.7,71.2,29.59,SSE,167,20.0,28.0,86,0.00,,---,0.00,VWS V14.00,2013-04-10 07:35:00,
2013-04-10 02:40:00,75.7,71.2,29.59,South,171,16.0,22.0,86,0.00,,---,0.00,VWS V14.00,2013-04-10 07:40:00,
2013-04-10 02:45:00,75.7,71.2,29.59,South,188,28.0,28.0,86,0.00,,---,0.00,VWS V14.00,2013-04-10 07:45:00,
2013-04-10 02:50:00,75.7,71.2,29.59,SSE,167,23.0,27.0,86,0.00,,---,0.00,VWS V14.00,2013-04-10 07:50:00,
2013-04-10 02:55:00,75.7,71.2,29.59,South,173,25.0,25.0,86,0.00,,---,0.00,VWS V14.00,2013-04-10 07:55:00,
2013-04-10 03:00:00,75.7,71.2,29.58,SSE,167,25.0,30.0,86,0.00,,---,0.00,VWS V14.00,2013-04-10 08:00:00,
2013-04-10 03:05:00,75.7,71.2,29.58,SSE,165,22.0,26.0,86,0.00,,---,0.00,VWS V14.00,2013-04-10 08:05:00,
2013-04-10 03:10:00,75.7,71.2,29.58,South,175,29.0,29.0,86,0.00,,---,0.00,VWS V14.00,2013-04-10 08:10:00,
2013-04-10 03:15:00,75.7,71.2,29.58,South,174,25.0,28.0,86,0.00,,---,0.00,VWS V14.00,2013-04-10 08:15:00,
2013-04-10 03:20:00,75.7,71.2,29.58,South,183,22.0,25.0,86,0.00,,---,0.00,VWS V14.00,2013-04-10 08:20:00,
2013-04-10 03:25:00,75.7,71.2,29.57,South,183,27.0,30.0,86,0.00,,---,0.00,VWS V14.00,2013-04-10 08:25:00,
2013-04-10 03:30:00,75.7,71.2,29.57,South,172,21.0,29.0,86,0.00,,---,0.00,VWS V14.00,2013-04-10 08:30:00,
2013-04-10 03:35:00,75.7,71.2,29.57,South,176,20.0,26.0,86,0.00,,---,0.00,VWS V14.00,2013-04-10 08:35:00,
2013-04-10 03:40:00,75.7,71.2,29.57,South,180,23.0,27.0,86,0.00,,---,0.00,VWS V14.00,2013-04-10 08:40:00,
2013-04-10 03:45:00,75.7,71.2,29.57,SSE,158,23.0,29.0,86,0.00,,---,0.00,VWS V14.00,2013-04-10 08:45:00,
2013-04-10 03:50:00,75.7,71.2,29.57,South,169,20.0,28.0,86,0.00,,---,0.00,VWS V14.00,2013-04-10 08:50:00,
2013-04-10 03:55:00,75.6,71.5,29.57,SSE,167,25.0,25.0,87,0.00,,---,0.00,VWS V14.00,2013-04-10 08:55:00,
2013-04-10 04:00:00,75.6,71.5,29.57,South,185,19.0,25.0,87,0.00,,---,0.00,VWS V14.00,2013-04-10 09:00:00,
2013-04-10 04:05:00,75.6,71.5,29.57,SSE,165,25.0,25.0,87,0.00,,---,0.00,VWS V14.00,2013-04-10 09:05:00,
2013-04-10 04:10:00,75.5,71.4,29.56,South,170,19.0,23.0,87,0.00,,---,0.00,VWS V14.00,2013-04-10 09:10:00,
2013-04-10 04:15:00,75.4,71.3,29.56,SSE,162,20.0,23.0,87,0.00,,---,0.00,VWS V14.00,2013-04-10 09:15:00,
2013-04-10 04:20:00,75.2,71.1,29.56,SSE,155,21.0,25.0,87,0.00,,---,0.00,VWS V14.00,2013-04-10 09:20:00,
2013-04-10 04:25:00,75.3,71.2,29.56,SSE,165,23.0,26.0,87,0.00,,---,0.00,VWS V14.00,2013-04-10 09:25:00,
2013-04-10 04:30:00,75.2,71.1,29.57,SSE,164,16.0,22.0,87,0.00,,---,0.00,VWS V14.00,2013-04-10 09:30:00,
2013-04-10 04:35:00,75.2,71.1,29.57,SSE,152,17.0,23.0,87,0.00,,---,0.00,VWS V14.00,2013-04-10 09:35:00,
2013-04-10 04:40:00,75.1,71.0,29.56,South,169,14.0,18.0,87,0.00,,---,0.00,VWS V14.00,2013-04-10 09:40:00,
2013-04-10 04:45:00,75.1,71.3,29.56,SSE,161,17.0,24.0,88,0.00,,---,0.00,VWS V14.00,2013-04-10 09:45:00,
2013-04-10 04:50:00,75.0,71.2,29.56,SE,145,22.0,22.0,88,0.00,,---,0.00,VWS V14.00,2013-04-10 09:50:00,
2013-04-10 04:55:00,74.9,71.1,29.56,SSE,156,18.0,26.0,88,0.00,,---,0.00,VWS V14.00,2013-04-10 09:55:00,
2013-04-10 05:00:00,74.9,71.1,29.56,SE,146,22.0,24.0,88,0.00,,---,0.00,VWS V14.00,2013-04-10 10:00:00,
2013-04-10 05:05:00,74.8,71.0,29.56,SSE,152,19.0,24.0,88,0.00,,---,0.00,VWS V14.00,2013-04-10 10:05:00,
2013-04-10 05:10:00,74.7,70.9,29.55,SE,125,20.0,22.0,88,0.00,,---,0.00,VWS V14.00,2013-04-10 10:10:00,
2013-04-10 05:15:00,74.6,70.8,29.56,SSE,153,14.0,20.0,88,0.00,,---,0.00,VWS V14.00,2013-04-10 10:15:00,
2013-04-10 05:20:00,74.6,71.2,29.55,SE,145,18.0,24.0,89,0.00,,---,0.00,VWS V14.00,2013-04-10 10:20:00,
2013-04-10 05:25:00,74.5,71.1,29.55,SSE,164,21.0,26.0,89,0.00,,---,0.00,VWS V14.00,2013-04-10 10:25:00,
2013-04-10 05:30:00,74.5,71.1,29.55,SSE,159,25.0,27.0,89,0.00,,---,0.00,VWS V14.00,2013-04-10 10:30:00,
2013-04-10 05:35:00,74.4,71.3,29.55,SE,136,17.0,26.0,90,0.00,,---,0.00,VWS V14.00,2013-04-10 10:35:00,
2013-04-10 05:40:00,74.4,71.3,29.55,SE,142,15.0,20.0,90,0.00,,---,0.00,VWS V14.00,2013-04-10 10:40:00,
2013-04-10 05:45:00,74.3,71.2,29.55,SSE,157,23.0,26.0,90,0.00,,---,0.00,VWS V14.00,2013-04-10 10:45:00,
2013-04-10 05:50:00,74.3,71.2,29.55,SSE,149,23.0,24.0,90,0.00,,---,0.00,VWS V14.00,2013-04-10 10:50:00,
2013-04-10 05:55:00,74.2,71.1,29.55,SSE,148,20.0,22.0,90,0.00,,---,0.00,VWS V14.00,2013-04-10 10:55:00,
2013-04-10 06:00:00,74.2,71.4,29.56,SSE,163,18.0,20.0,91,0.00,,---,0.00,VWS V14.00,2013-04-10 11:00:00,
2013-04-10 06:05:00,74.3,71.5,29.56,SSE,165,21.0,21.0,91,0.00,,---,0.00,VWS V14.00,2013-04-10 11:05:00,
2013-04-10 06:10:00,74.3,71.5,29.56,South,169,21.0,25.0,91,0.00,,---,0.00,VWS V14.00,2013-04-10 11:10:00,
2013-04-10 06:15:00,74.3,71.5,29.56,SSE,158,13.0,19.0,91,0.00,,---,0.00,VWS V14.00,2013-04-10 11:15:00,
2013-04-10 06:20:00,74.3,71.5,29.56,SSE,155,14.0,19.0,91,0.00,,---,0.00,VWS V14.00,2013-04-10 11:20:00,
2013-04-10 06:25:00,74.4,71.6,29.56,SSE,166,17.0,22.0,91,0.00,,---,0.00,VWS V14.00,2013-04-10 11:25:00,
2013-04-10 06:30:00,74.4,71.6,29.56,SSE,153,17.0,22.0,91,0.00,,---,0.00,VWS V14.00,2013-04-10 11:30:00,
2013-04-10 06:35:00,74.4,71.6,29.56,SSE,159,16.0,19.0,91,0.00,,---,0.00,VWS V14.00,2013-04-10 11:35:00,
2013-04-10 06:40:00,74.4,71.6,29.56,South,173,14.0,20.0,91,0.00,,---,0.00,VWS V14.00,2013-04-10 11:40:00,
2013-04-10 06:45:00,74.3,71.5,29.56,South,183,18.0,19.0,91,0.00,,---,0.00,VWS V14.00,2013-04-10 11:45:00,
2013-04-10 06:50:00,74.3,71.5,29.56,SSE,167,18.0,21.0,91,0.00,,---,0.00,VWS V14.00,2013-04-10 11:50:00,
2013-04-10 06:55:00,74.4,71.6,29.56,SSE,152,13.0,18.0,91,0.00,,---,0.00,VWS V14.00,2013-04-10 11:55:00,
2013-04-10 07:00:00,74.4,71.6,29.56,South,185,16.0,17.0,91,0.00,,---,0.00,VWS V14.00,2013-04-10 12:00:00,
2013-04-10 07:05:00,74.4,71.3,29.56,South,177,11.0,23.0,90,0.00,,---,0.00,VWS V14.00,2013-04-10 12:05:00,
2013-04-10 07:10:00,74.6,71.5,29.56,SSE,153,17.0,19.0,90,0.00,,---,0.00,VWS V14.00,2013-04-10 12:10:00,
2013-04-10 07:15:00,74.6,71.5,29.56,South,178,25.0,26.0,90,0.00,,---,0.00,VWS V14.00,2013-04-10 12:15:00,
2013-04-10 07:20:00,74.7,71.6,29.56,South,174,16.0,20.0,90,0.00,,---,0.00,VWS V14.00,2013-04-10 12:20:00,
2013-04-10 07:25:00,74.6,71.5,29.56,South,186,18.0,23.0,90,0.00,,---,0.00,VWS V14.00,2013-04-10 12:25:00,
2013-04-10 07:30:00,74.7,71.6,29.56,South,171,22.0,22.0,90,0.00,,---,0.00,VWS V14.00,2013-04-10 12:30:00,
2013-04-10 07:35:00,74.7,71.6,29.57,South,175,17.0,23.0,90,0.00,,---,0.00,VWS V14.00,2013-04-10 12:35:00,
2013-04-10 07:40:00,74.8,71.7,29.57,South,175,21.0,21.0,90,0.00,,---,0.00,VWS V14.00,2013-04-10 12:40:00,
2013-04-10 07:45:00,74.8,71.7,29.57,South,169,13.0,22.0,90,0.00,,---,0.00,VWS V14.00,2013-04-10 12:45:00,
2013-04-10 07:50:00,74.8,71.7,29.57,South,180,17.0,21.0,90,0.00,,---,0.00,VWS V14.00,2013-04-10 12:50:00,
2013-04-10 07:55:00,74.8,71.7,29.57,South,182,22.0,24.0,90,0.00,,---,0.00,VWS V14.00,2013-04-10 12:55:00,
2013-04-10 08:00:00,74.8,71.7,29.57,South,169,14.0,20.0,90,0.00,,---,0.00,VWS V14.00,2013-04-10 13:00:00,
2013-04-10 08:05:00,74.9,71.8,29.57,South,186,20.0,22.0,90,0.00,,---,0.00,VWS V14.00,2013-04-10 13:05:00,
2013-04-10 08:10:00,74.9,71.8,29.58,South,173,21.0,21.0,90,0.00,,---,0.00,VWS V14.00,2013-04-10 13:10:00,
2013-04-10 08:15:00,74.9,71.8,29.58,South,177,17.0,18.0,90,0.00,,---,0.00,VWS V14.00,2013-04-10 13:15:00,
2013-04-10 08:20:00,74.9,71.8,29.58,South,181,19.0,20.0,90,0.00,,---,0.00,VWS V14.00,2013-04-10 13:20:00,
2013-04-10 08:25:00,74.9,71.8,29.59,South,169,20.0,23.0,90,0.00,,---,0.00,VWS V14.00,2013-04-10 13:25:00,
2013-04-10 08:30:00,75.0,71.5,29.59,SSW,193,17.0,19.0,89,0.00,,---,0.00,VWS V14.00,2013-04-10 13:30:00,
2013-04-10 08:35:00,75.1,71.6,29.60,SSW,197,13.0,18.0,89,0.00,,---,0.00,VWS V14.00,2013-04-10 13:35:00,
2013-04-10 08:40:00,75.2,71.7,29.61,SSW,207,12.0,13.0,89,0.00,,---,0.00,VWS V14.00,2013-04-10 13:40:00,
2013-04-10 08:45:00,75.3,71.8,29.62,SSW,209,15.0,15.0,89,0.00,,---,0.00,VWS V14.00,2013-04-10 13:45:00,
2013-04-10 08:50:00,75.3,71.5,29.63,SW,214,10.0,14.0,88,0.00,,---,0.00,VWS V14.00,2013-04-10 13:50:00,
2013-04-10 08:55:00,75.4,71.6,29.63,SSW,202,9.0,11.0,88,0.00,,---,0.00,VWS V14.00,2013-04-10 13:55:00,
2013-04-10 09:00:00,75.4,71.6,29.62,SSW,207,11.0,16.0,88,0.00,,---,0.00,VWS V14.00,2013-04-10 14:00:00,
2013-04-10 09:05:00,75.5,71.7,29.62,SSW,206,10.0,15.0,88,0.00,,---,0.00,VWS V14.00,2013-04-10 14:05:00,
2013-04-10 09:10:00,75.6,71.8,29.62,SSW,202,8.0,11.0,88,0.00,,---,0.00,VWS V14.00,2013-04-10 14:10:00,
2013-04-10 09:15:00,75.8,72.0,29.62,South,190,11.0,13.0,88,0.00,,---,0.00,VWS V14.00,2013-04-10 14:15:00,
2013-04-10 09:20:00,76.0,71.9,29.62,SSW,193,9.0,12.0,87,0.00,,---,0.00,VWS V14.00,2013-04-10 14:20:00,
2013-04-10 09:25:00,76.1,71.9,29.63,South,190,11.0,11.0,87,0.00,,---,0.00,VWS V14.00,2013-04-10 14:25:00,
2013-04-10 09:30:00,76.1,71.6,29.63,South,190,6.0,12.0,86,0.00,,---,0.00,VWS V14.00,2013-04-10 14:30:00,
2013-04-10 09:35:00,76.2,71.7,29.63,SSW,200,12.0,13.0,86,0.00,,---,0.00,VWS V14.00,2013-04-10 14:35:00,
2013-04-10 09:40:00,76.2,71.7,29.63,SSW,202,11.0,14.0,86,0.00,,---,0.00,VWS V14.00,2013-04-10 14:40:00,
2013-04-10 09:45:00,76.5,72.0,29.64,SSW,209,6.0,10.0,86,0.00,,---,0.00,VWS V14.00,2013-04-10 14:45:00,
2013-04-10 09:50:00,76.6,72.1,29.64,SSW,207,10.0,14.0,86,0.00,,---,0.00,VWS V14.00,2013-04-10 14:50:00,
2013-04-10 09:55:00,76.7,71.9,29.64,SSW,208,10.0,13.0,85,0.00,,---,0.00,VWS V14.00,2013-04-10 14:55:00,
2013-04-10 10:00:00,76.9,72.1,29.65,SSW,208,10.0,10.0,85,0.00,,---,0.00,VWS V14.00,2013-04-10 15:00:00,
2013-04-10 10:05:00,77.0,72.2,29.65,SSW,208,7.0,9.0,85,0.00,,---,0.00,VWS V14.00,2013-04-10 15:05:00,
2013-04-10 10:10:00,77.0,71.8,29.65,SSW,197,8.0,11.0,84,0.00,,---,0.00,VWS V14.00,2013-04-10 15:10:00,
2013-04-10 10:15:00,77.1,71.9,29.65,SSW,198,4.0,7.0,84,0.00,,---,0.00,VWS V14.00,2013-04-10 15:15:00,
2013-04-10 10:20:00,77.1,71.9,29.65,SSW,198,9.0,9.0,84,0.00,,---,0.00,VWS V14.00,2013-04-10 15:20:00,
2013-04-10 10:25:00,77.2,72.0,29.65,SSW,198,5.0,7.0,84,0.00,,---,0.00,VWS V14.00,2013-04-10 15:25:00,
2013-04-10 10:30:00,77.2,72.0,29.65,SSW,198,5.0,7.0,84,0.00,,---,0.00,VWS V14.00,2013-04-10 15:30:00,
2013-04-10 10:35:00,77.3,72.1,29.65,SSW,210,8.0,8.0,84,0.00,,---,0.00,VWS V14.00,2013-04-10 15:35:00,
2013-04-10 10:40:00,77.4,72.2,29.65,SSW,210,6.0,6.0,84,0.00,,---,0.00,VWS V14.00,2013-04-10 15:40:00,
2013-04-10 10:45:00,77.4,72.2,29.66,SW,219,5.0,6.0,84,0.00,,---,0.00,VWS V14.00,2013-04-10 15:45:00,
2013-04-10 10:50:00,77.4,72.2,29.66,SW,217,3.0,5.0,84,0.00,,---,0.00,VWS V14.00,2013-04-10 15:50:00,
2013-04-10 10:55:00,77.4,72.2,29.66,SW,221,3.0,6.0,84,0.00,,---,0.00,VWS V14.00,2013-04-10 15:55:00,
2013-04-10 11:00:00,77.4,72.2,29.66,SW,221,0.0,0.0,84,0.00,,---,0.00,VWS V14.00,2013-04-10 16:00:00,
2013-04-10 11:05:00,77.5,72.3,29.65,SW,221,0.0,0.0,84,0.00,,---,0.00,VWS V14.00,2013-04-10 16:05:00,
2013-04-10 11:10:00,77.4,72.2,29.66,West,261,0.0,1.0,84,0.00,,---,0.00,VWS V14.00,2013-04-10 16:10:00,
2013-04-10 11:15:00,77.4,72.2,29.65,NW,311,0.0,0.0,84,0.00,,---,0.00,VWS V14.00,2013-04-10 16:15:00,
2013-04-10 11:20:00,77.3,72.1,29.66,NW,326,0.0,0.0,84,0.00,,---,0.00,VWS V14.00,2013-04-10 16:20:00,
2013-04-10 11:25:00,77.5,72.6,29.66,NW,325,0.0,0.0,85,0.00,,---,0.00,VWS V14.00,2013-04-10 16:25:00,
2013-04-10 11:30:00,77.5,72.6,29.66,NW,325,0.0,0.0,85,0.00,,---,0.00,VWS V14.00,2013-04-10 16:30:00,
2013-04-10 11:35:00,77.6,72.7,29.66,NW,325,0.0,0.0,85,0.00,,---,0.00,VWS V14.00,2013-04-10 16:35:00,
2013-04-10 11:40:00,77.6,72.4,29.66,NW,325,0.0,0.0,84,0.00,,---,0.00,VWS V14.00,2013-04-10 16:40:00,
2013-04-10 11:45:00,77.8,72.6,29.66,NW,325,0.0,0.0,84,0.00,,---,0.00,VWS V14.00,2013-04-10 16:45:00,
2013-04-10 11:50:00,77.8,72.6,29.66,NW,325,0.0,0.0,84,0.00,,---,0.00,VWS V14.00,2013-04-10 16:50:00,
2013-04-10 11:55:00,78.1,72.9,29.66,North,350,0.0,0.0,84,0.00,,---,0.00,VWS V14.00,2013-04-10 16:55:00,
2013-04-10 12:00:00,78.1,72.5,29.66,NNE,17,0.0,0.0,83,0.00,,---,0.00,VWS V14.00,2013-04-10 17:00:00,
2013-04-10 12:05:00,78.2,72.6,29.66,NNE,17,0.0,0.0,83,0.00,,---,0.00,VWS V14.00,2013-04-10 17:05:00,
2013-04-10 12:10:00,78.2,72.6,29.65,NNE,17,0.0,0.0,83,0.00,,---,0.00,VWS V14.00,2013-04-10 17:10:00,
2013-04-10 12:15:00,78.4,73.2,29.65,NNE,16,0.0,0.0,84,0.00,,---,0.00,VWS V14.00,2013-04-10 17:15:00,
2013-04-10 12:20:00,78.5,72.9,29.65,NNW,333,0.0,0.0,83,0.00,,---,0.00,VWS V14.00,2013-04-10 17:20:00,
2013-04-10 12:25:00,78.4,72.8,29.65,NNW,333,0.0,0.0,83,0.00,,---,0.00,VWS V14.00,2013-04-10 17:25:00,
2013-04-10 12:30:00,78.5,72.9,29.65,NNW,333,0.0,0.0,83,0.00,,---,0.00,VWS V14.00,2013-04-10 17:30:00,
2013-04-10 12:35:00,78.9,73.3,29.65,NNW,333,0.0,0.0,83,0.00,,---,0.00,VWS V14.00,2013-04-10 17:35:00,
2013-04-10 12:40:00,79.2,73.6,29.65,NNW,333,0.0,0.0,83,0.00,,---,0.00,VWS V14.00,2013-04-10 17:40:00,
2013-04-10 12:45:00,79.8,74.2,29.65,NNW,333,0.0,0.0,83,0.00,,---,0.00,VWS V14.00,2013-04-10 17:45:00,
2013-04-10 12:50:00,80.5,74.5,29.65,NNW,333,0.0,0.0,82,0.00,,---,0.00,VWS V14.00,2013-04-10 17:50:00,
2013-04-10 12:55:00,80.9,73.8,29.65,NNW,333,0.0,0.0,79,0.00,,---,0.00,VWS V14.00,2013-04-10 17:55:00,
2013-04-10 13:00:00,81.2,74.4,29.64,NNW,333,0.0,0.0,80,0.00,,---,0.00,VWS V14.00,2013-04-10 18:00:00,
2013-04-10 13:05:00,82.1,74.6,29.64,North,350,0.0,0.0,78,0.00,,---,0.00,VWS V14.00,2013-04-10 18:05:00,
2013-04-10 13:10:00,82.9,74.9,29.64,North,350,0.0,0.0,77,0.00,,---,0.00,VWS V14.00,2013-04-10 18:10:00,
2013-04-10 13:15:00,83.0,73.9,29.64,North,350,0.0,0.0,74,0.00,,---,0.00,VWS V14.00,2013-04-10 18:15:00,
2013-04-10 13:20:00,82.8,74.1,29.64,North,350,0.0,0.0,75,0.00,,---,0.00,VWS V14.00,2013-04-10 18:20:00,
2013-04-10 13:25:00,83.6,74.4,29.64,North,350,3.0,4.0,74,0.00,,---,0.00,VWS V14.00,2013-04-10 18:25:00,
2013-04-10 13:30:00,83.7,74.1,29.63,NE,39,8.0,8.0,73,0.00,,---,0.00,VWS V14.00,2013-04-10 18:30:00,
2013-04-10 13:35:00,83.7,73.7,29.63,NE,39,0.0,0.0,72,0.00,,---,0.00,VWS V14.00,2013-04-10 18:35:00,
2013-04-10 13:40:00,84.3,74.3,29.63,NE,39,0.0,2.0,72,0.00,,---,0.00,VWS V14.00,2013-04-10 18:40:00,
2013-04-10 13:45:00,81.0,64.8,29.65,North,355,7.0,10.0,58,0.00,,---,0.00,VWS V14.00,2013-04-10 18:45:00,
2013-04-10 13:50:00,75.7,61.3,29.66,NW,311,2.0,10.0,61,0.00,,---,0.00,VWS V14.00,2013-04-10 18:50:00,
2013-04-10 13:55:00,72.1,59.3,29.66,NNE,28,6.0,6.0,64,0.00,,---,0.00,VWS V14.00,2013-04-10 18:55:00,
2013-04-10 14:00:00,70.7,59.2,29.66,NNW,339,7.0,9.0,67,0.00,,---,0.00,VWS V14.00,2013-04-10 19:00:00,
2013-04-10 14:05:00,71.3,59.8,29.67,West,268,6.0,6.0,67,0.00,,---,0.00,VWS V14.00,2013-04-10 19:05:00,
2013-04-10 14:10:00,71.7,59.8,29.67,ENE,57,2.0,8.0,66,0.00,,---,0.00,VWS V14.00,2013-04-10 19:10:00,
2013-04-10 14:15:00,71.9,58.2,29.67,NW,320,5.0,7.0,62,0.00,,---,0.00,VWS V14.00,2013-04-10 19:15:00,
2013-04-10 14:20:00,71.6,57.9,29.68,NNW,343,4.0,6.0,62,0.00,,---,0.00,VWS V14.00,2013-04-10 19:20:00,
2013-04-10 14:25:00,70.3,56.7,29.68,WNW,286,13.0,13.0,62,0.00,,---,0.00,VWS V14.00,2013-04-10 19:25:00,
2013-04-10 14:30:00,68.9,55.4,29.68,NNW,342,5.0,9.0,62,0.00,,---,0.00,VWS V14.00,2013-04-10 19:30:00,
2013-04-10 14:35:00,67.7,55.5,29.69,NW,325,8.0,8.0,65,0.00,,---,0.00,VWS V14.00,2013-04-10 19:35:00,
2013-04-10 14:40:00,66.8,54.7,29.69,NNW,332,10.0,10.0,65,0.00,,---,0.00,VWS V14.00,2013-04-10 19:40:00,
2013-04-10 14:45:00,65.9,54.7,29.69,NW,318,2.0,3.0,67,0.00,,---,0.00,VWS V14.00,2013-04-10 19:45:00,
2013-04-10 14:50:00,65.1,53.9,29.69,ENE,58,4.0,5.0,67,0.00,,---,0.00,VWS V14.00,2013-04-10 19:50:00,
2013-04-10 14:55:00,64.7,53.9,29.69,NNW,334,10.0,10.0,68,0.00,,---,0.00,VWS V14.00,2013-04-10 19:55:00,
2013-04-10 15:00:00,64.2,53.8,29.69,NNW,342,6.0,10.0,69,0.00,,---,0.00,VWS V14.00,2013-04-10 20:00:00,
2013-04-10 15:05:00,63.6,53.3,29.69,NNE,20,7.0,11.0,69,0.00,,---,0.00,VWS V14.00,2013-04-10 20:05:00,
2013-04-10 15:10:00,62.9,53.0,29.70,NW,321,5.0,9.0,70,0.00,,---,0.00,VWS V14.00,2013-04-10 20:10:00,
2013-04-10 15:15:00,62.5,52.6,29.70,North,9,4.0,5.0,70,0.00,,---,0.00,VWS V14.00,2013-04-10 20:15:00,
2013-04-10 15:20:00,62.3,52.8,29.69,North,355,1.0,1.0,71,0.00,,---,0.00,VWS V14.00,2013-04-10 20:20:00,
2013-04-10 15:25:00,62.1,52.6,29.69,North,5,10.0,10.0,71,0.00,,---,0.00,VWS V14.00,2013-04-10 20:25:00,
2013-04-10 15:30:00,61.8,52.7,29.69,NNW,329,3.0,4.0,72,0.00,,---,0.00,VWS V14.00,2013-04-10 20:30:00,
2013-04-10 15:35:00,61.6,52.5,29.69,North,355,4.0,4.0,72,0.00,,---,0.00,VWS V14.00,2013-04-10 20:35:00,
2013-04-10 15:40:00,61.7,52.6,29.69,NNW,342,6.0,11.0,72,0.00,,---,0.00,VWS V14.00,2013-04-10 20:40:00,
2013-04-10 15:45:00,61.9,52.8,29.69,NE,38,19.0,19.0,72,0.00,,---,0.00,VWS V14.00,2013-04-10 20:45:00,
2013-04-10 15:50:00,61.9,52.8,29.69,North,360,10.0,20.0,72,0.00,,---,0.00,VWS V14.00,2013-04-10 20:50:00,
2013-04-10 15:55:00,61.9,52.8,29.69,NNE,13,6.0,10.0,72,0.00,,---,0.00,VWS V14.00,2013-04-10 20:55:00,
2013-04-10 16:00:00,61.8,52.3,29.68,NNE,19,12.0,13.0,71,0.00,,---,0.00,VWS V14.00,2013-04-10 21:00:00,
2013-04-10 16:05:00,61.7,52.2,29.68,NNE,19,7.0,14.0,71,0.00,,---,0.00,VWS V14.00,2013-04-10 21:05:00,
2013-04-10 16:10:00,61.7,52.2,29.69,NNE,26,22.0,22.0,71,0.00,,---,0.00,VWS V14.00,2013-04-10 21:10:00,
2013-04-10 16:15:00,61.7,52.6,29.68,North,355,7.0,9.0,72,0.00,,---,0.00,VWS V14.00,2013-04-10 21:15:00,
2013-04-10 16:20:00,62.0,52.9,29.68,NNE,15,5.0,10.0,72,0.00,,---,0.00,VWS V14.00,2013-04-10 21:20:00,
2013-04-10 16:25:00,61.9,52.8,29.68,NNE,17,14.0,22.0,72,0.00,,---,0.00,VWS V14.00,2013-04-10 21:25:00,
2013-04-10 16:30:00,61.7,52.6,29.68,NNE,23,11.0,17.0,72,0.00,,---,0.00,VWS V14.00,2013-04-10 21:30:00,
2013-04-10 16:35:00,61.5,52.4,29.68,North,9,6.0,10.0,72,0.00,,---,0.00,VWS V14.00,2013-04-10 21:35:00,
2013-04-10 16:40:00,61.4,52.7,29.68,NNE,30,19.0,22.0,73,0.00,,---,0.00,VWS V14.00,2013-04-10 21:40:00,
2013-04-10 16:45:00,61.4,52.7,29.68,North,5,3.0,5.0,73,0.00,,---,0.00,VWS V14.00,2013-04-10 21:45:00,
2013-04-10 16:50:00,61.6,52.9,29.68,NNW,333,5.0,9.0,73,0.00,,---,0.00,VWS V14.00,2013-04-10 21:50:00,
2013-04-10 16:55:00,61.6,52.9,29.68,North,355,3.0,5.0,73,0.00,,---,0.00,VWS V14.00,2013-04-10 21:55:00,
2013-04-10 17:00:00,61.6,52.9,29.68,NNE,29,18.0,20.0,73,0.00,,---,0.00,VWS V14.00,2013-04-10 22:00:00,
2013-04-10 17:05:00,61.6,52.5,29.67,NNW,331,4.0,13.0,72,0.00,,---,0.00,VWS V14.00,2013-04-10 22:05:00,
2013-04-10 17:10:00,61.6,52.5,29.68,NNE,31,18.0,19.0,72,0.00,,---,0.00,VWS V14.00,2013-04-10 22:10:00,
2013-04-10 17:15:00,61.5,52.4,29.67,NNE,29,21.0,23.0,72,0.00,,---,0.00,VWS V14.00,2013-04-10 22:15:00,
2013-04-10 17:20:00,61.4,52.3,29.68,North,5,3.0,7.0,72,0.00,,---,0.00,VWS V14.00,2013-04-10 22:20:00,
2013-04-10 17:25:00,61.4,52.3,29.68,NNE,12,0.0,4.0,72,0.00,,---,0.00,VWS V14.00,2013-04-10 22:25:00,
2013-04-10 17:30:00,61.4,52.3,29.68,NNE,26,15.0,17.0,72,0.00,,---,0.00,VWS V14.00,2013-04-10 22:30:00,
2013-04-10 17:35:00,61.2,52.1,29.68,NNE,28,18.0,19.0,72,0.00,,---,0.00,VWS V14.00,2013-04-10 22:35:00,
2013-04-10 17:40:00,61.2,52.1,29.68,North,355,1.0,8.0,72,0.00,,---,0.00,VWS V14.00,2013-04-10 22:40:00,
2013-04-10 17:45:00,61.2,52.1,29.68,North,11,19.0,20.0,72,0.00,,---,0.00,VWS V14.00,2013-04-10 22:45:00,
2013-04-10 17:50:00,61.1,52.0,29.68,North,355,9.0,15.0,72,0.00,,---,0.00,VWS V14.00,2013-04-10 22:50:00,
2013-04-10 17:55:00,61.2,52.1,29.68,NE,39,21.0,21.0,72,0.00,,---,0.00,VWS V14.00,2013-04-10 22:55:00,
2013-04-10 18:00:00,61.3,52.2,29.68,NNE,24,12.0,14.0,72,0.00,,---,0.00,VWS V14.00,2013-04-10 23:00:00,
2013-04-10 18:05:00,61.5,52.0,29.68,NNE,30,13.0,18.0,71,0.00,,---,0.00,VWS V14.00,2013-04-10 23:05:00,
2013-04-10 18:10:00,61.7,52.2,29.68,North,360,15.0,19.0,71,0.00,,---,0.00,VWS V14.00,2013-04-10 23:10:00,
2013-04-10 18:15:00,61.5,51.6,29.67,NNE,32,16.0,17.0,70,0.00,,---,0.00,VWS V14.00,2013-04-10 23:15:00,
2013-04-10 18:20:00,61.5,52.0,29.67,NE,37,20.0,22.0,71,0.00,,---,0.00,VWS V14.00,2013-04-10 23:20:00,
2013-04-10 18:25:00,61.6,52.1,29.68,NE,34,22.0,22.0,71,0.00,,---,0.00,VWS V14.00,2013-04-10 23:25:00,
2013-04-10 18:30:00,61.5,52.0,29.68,NNE,29,9.0,14.0,71,0.00,,---,0.00,VWS V14.00,2013-04-10 23:30:00,
2013-04-10 18:35:00,61.6,51.7,29.68,NNE,28,20.0,21.0,70,0.00,,---,0.00,VWS V14.00,2013-04-10 23:35:00,
2013-04-10 18:40:00,61.8,51.9,29.68,NE,38,18.0,20.0,70,0.00,,---,0.00,VWS V14.00,2013-04-10 23:40:00,
2013-04-10 18:45:00,61.9,52.0,29.68,NNE,18,6.0,17.0,70,0.00,,---,0.00,VWS V14.00,2013-04-10 23:45:00,
2013-04-10 18:50:00,62.0,52.1,29.68,NE,45,17.0,17.0,70,0.00,,---,0.00,VWS V14.00,2013-04-10 23:50:00,
2013-04-10 18:55:00,62.1,52.2,29.68,NNE,32,16.0,22.0,70,0.00,,---,0.00,VWS V14.00,2013-04-10 23:55:00,
2013-04-10 19:00:00,62.2,52.3,29.67,NNE,27,19.0,21.0,70,0.00,,---,0.00,VWS V14.00,2013-04-11 00:00:00,
2013-04-10 19:05:00,62.3,52.0,29.68,NNE,31,24.0,24.0,69,0.00,,---,0.00,VWS V14.00,2013-04-11 00:05:00,
2013-04-10 19:10:00,62.4,52.1,29.68,NE,44,14.0,17.0,69,0.00,,---,0.00,VWS V14.00,2013-04-11 00:10:00,
2013-04-10 19:15:00,62.5,52.2,29.67,NNE,20,13.0,17.0,69,0.00,,---,0.00,VWS V14.00,2013-04-11 00:15:00,
2013-04-10 19:20:00,62.4,52.1,29.67,NE,34,19.0,25.0,69,0.00,,---,0.00,VWS V14.00,2013-04-11 00:20:00,
2013-04-10 19:25:00,62.4,52.1,29.68,NNE,26,19.0,25.0,69,0.00,,---,0.00,VWS V14.00,2013-04-11 00:25:00,
2013-04-10 19:30:00,62.4,52.1,29.68,NE,39,18.0,23.0,69,0.00,,---,0.00,VWS V14.00,2013-04-11 00:30:00,
2013-04-10 19:35:00,62.3,52.0,29.68,NNE,31,19.0,21.0,69,0.00,,---,0.00,VWS V14.00,2013-04-11 00:35:00,
2013-04-10 19:40:00,62.3,52.4,29.68,NNE,30,13.0,18.0,70,0.00,,---,0.00,VWS V14.00,2013-04-11 00:40:00,
2013-04-10 19:45:00,62.4,52.1,29.68,NNE,23,11.0,11.0,69,0.00,,---,0.00,VWS V14.00,2013-04-11 00:45:00,
2013-04-10 19:50:00,62.2,51.9,29.68,NNE,24,6.0,11.0,69,0.00,,---,0.00,VWS V14.00,2013-04-11 00:50:00,
2013-04-10 19:55:00,62.2,51.9,29.69,NNE,23,15.0,19.0,69,0.00,,---,0.00,VWS V14.00,2013-04-11 00:55:00,
2013-04-10 20:00:00,62.0,51.7,29.69,NNE,30,23.0,25.0,69,0.00,,---,0.00,VWS V14.00,2013-04-11 01:00:00,
2013-04-10 20:05:00,61.8,51.5,29.69,NNW,343,8.0,15.0,69,0.00,,---,0.00,VWS V14.00,2013-04-11 01:05:00,
2013-04-10 20:10:00,61.6,51.7,29.69,NE,35,29.0,29.0,70,0.00,,---,0.00,VWS V14.00,2013-04-11 01:10:00,
2013-04-10 20:15:00,61.5,51.6,29.69,North,5,24.0,25.0,70,0.00,,---,0.00,VWS V14.00,2013-04-11 01:15:00,
2013-04-10 20:20:00,61.4,51.5,29.70,NNE,14,21.0,27.0,70,0.00,,---,0.00,VWS V14.00,2013-04-11 01:20:00,
2013-04-10 20:25:00,61.1,51.2,29.70,NNE,32,23.0,28.0,70,0.00,,---,0.00,VWS V14.00,2013-04-11 01:25:00,
2013-04-10 20:30:00,61.0,51.2,29.70,NE,35,26.0,26.0,70,0.00,,---,0.00,VWS V14.00,2013-04-11 01:30:00,
2013-04-10 20:35:00,60.9,51.1,29.71,NNE,25,14.0,21.0,70,0.00,,---,0.00,VWS V14.00,2013-04-11 01:35:00,
2013-04-10 20:40:00,60.7,50.9,29.71,NNE,28,19.0,23.0,70,0.00,,---,0.00,VWS V14.00,2013-04-11 01:40:00,
2013-04-10 20:45:00,60.5,50.7,29.71,NNW,329,10.0,16.0,70,0.00,,---,0.00,VWS V14.00,2013-04-11 01:45:00,
2013-04-10 20:50:00,60.4,50.6,29.71,NE,40,11.0,20.0,70,0.00,,---,0.00,VWS V14.00,2013-04-11 01:50:00,
2013-04-10 20:55:00,60.4,50.6,29.71,NE,37,22.0,28.0,70,0.00,,---,0.00,VWS V14.00,2013-04-11 01:55:00,
2013-04-10 21:00:00,60.3,50.5,29.72,NNE,32,14.0,19.0,70,0.00,,---,0.00,VWS V14.00,2013-04-11 02:00:00,
2013-04-10 21:05:00,60.3,50.5,29.72,NNE,18,16.0,19.0,70,0.00,,---,0.00,VWS V14.00,2013-04-11 02:05:00,
2013-04-10 21:10:00,60.3,50.5,29.72,NNE,33,23.0,23.0,70,0.00,,---,0.00,VWS V14.00,2013-04-11 02:10:00,
2013-04-10 21:15:00,60.2,50.8,29.72,NE,35,19.0,21.0,71,0.00,,---,0.00,VWS V14.00,2013-04-11 02:15:00,
2013-04-10 21:20:00,60.3,50.9,29.72,North,350,8.0,14.0,71,0.00,,---,0.00,VWS V14.00,2013-04-11 02:20:00,
2013-04-10 21:25:00,60.2,50.8,29.72,NNE,15,10.0,19.0,71,0.00,,---,0.00,VWS V14.00,2013-04-11 02:25:00,
2013-04-10 21:30:00,60.2,50.8,29.73,NNE,28,7.0,11.0,71,0.00,,---,0.00,VWS V14.00,2013-04-11 02:30:00,
2013-04-10 21:35:00,60.0,50.6,29.73,NNW,340,9.0,12.0,71,0.00,,---,0.00,VWS V14.00,2013-04-11 02:35:00,
2013-04-10 21:40:00,59.9,50.5,29.73,NNE,33,11.0,18.0,71,0.00,,---,0.00,VWS V14.00,2013-04-11 02:40:00,
2013-04-10 21:45:00,59.8,50.4,29.73,NE,34,9.0,11.0,71,0.00,,---,0.00,VWS V14.00,2013-04-11 02:45:00,
2013-04-10 21:50:00,59.8,50.4,29.74,NNE,26,10.0,24.0,71,0.00,,---,0.00,VWS V14.00,2013-04-11 02:50:00,
2013-04-10 21:55:00,59.7,50.3,29.74,NNE,17,13.0,13.0,71,0.00,,---,0.00,VWS V14.00,2013-04-11 02:55:00,
2013-04-10 22:00:00,59.6,50.2,29.74,NNE,19,5.0,14.0,71,0.00,,---,0.00,VWS V14.00,2013-04-11 03:00:00,
2013-04-10 22:05:00,59.6,50.2,29.74,NNE,13,16.0,16.0,71,0.00,,---,0.00,VWS V14.00,2013-04-11 03:05:00,
2013-04-10 22:10:00,59.5,50.1,29.74,NNE,28,21.0,25.0,71,0.00,,---,0.00,VWS V14.00,2013-04-11 03:10:00,
2013-04-10 22:15:00,59.5,50.1,29.74,North,11,8.0,24.0,71,0.00,,---,0.00,VWS V14.00,2013-04-11 03:15:00,
2013-04-10 22:20:00,59.5,50.1,29.74,NE,36,13.0,16.0,71,0.00,,---,0.00,VWS V14.00,2013-04-11 03:20:00,
2013-04-10 22:25:00,59.6,50.2,29.74,NNE,23,22.0,24.0,71,0.00,,---,0.00,VWS V14.00,2013-04-11 03:25:00,
2013-04-10 22:30:00,59.6,50.2,29.74,NNE,25,14.0,16.0,71,0.00,,---,0.00,VWS V14.00,2013-04-11 03:30:00,
2013-04-10 22:35:00,59.6,50.2,29.74,NNE,27,15.0,15.0,71,0.00,,---,0.00,VWS V14.00,2013-04-11 03:35:00,
2013-04-10 22:40:00,59.7,50.3,29.75,NNE,13,6.0,11.0,71,0.00,,---,0.00,VWS V14.00,2013-04-11 03:40:00,
2013-04-10 22:45:00,59.7,50.3,29.75,NNW,341,7.0,10.0,71,0.00,,---,0.00,VWS V14.00,2013-04-11 03:45:00,
2013-04-10 22:50:00,59.6,50.2,29.76,NNE,33,8.0,15.0,71,0.00,,---,0.00,VWS V14.00,2013-04-11 03:50:00,
2013-04-10 22:55:00,59.5,50.1,29.76,NNE,19,8.0,15.0,71,0.00,,---,0.00,VWS V14.00,2013-04-11 03:55:00,
2013-04-10 23:00:00,59.5,50.1,29.76,NNE,28,20.0,20.0,71,0.00,,---,0.00,VWS V14.00,2013-04-11 04:00:00,
2013-04-10 23:05:00,59.6,50.2,29.77,NNE,26,2.0,4.0,71,0.00,,---,0.00,VWS V14.00,2013-04-11 04:05:00,
2013-04-10 23:10:00,59.6,50.2,29.77,NE,36,6.0,8.0,71,0.00,,---,0.00,VWS V14.00,2013-04-11 04:10:00,
2013-04-10 23:15:00,59.4,50.0,29.78,North,5,3.0,11.0,71,0.00,,---,0.00,VWS V14.00,2013-04-11 04:15:00,
2013-04-10 23:20:00,59.3,49.9,29.78,NNE,17,2.0,8.0,71,0.00,,---,0.00,VWS V14.00,2013-04-11 04:20:00,
2013-04-10 23:25:00,59.3,49.9,29.78,North,5,4.0,9.0,71,0.00,,---,0.00,VWS V14.00,2013-04-11 04:25:00,
2013-04-10 23:30:00,59.1,49.7,29.79,NNW,334,2.0,4.0,71,0.00,,---,0.00,VWS V14.00,2013-04-11 04:30:00,
2013-04-10 23:35:00,58.9,49.5,29.78,NW,310,5.0,8.0,71,0.00,,---,0.00,VWS V14.00,2013-04-11 04:35:00,
2013-04-10 23:40:00,58.7,49.0,29.78,NNE,24,0.0,8.0,70,0.00,,---,0.00,VWS V14.00,2013-04-11 04:40:00,
2013-04-10 23:45:00,58.6,49.2,29.78,NNE,30,3.0,15.0,71,0.00,,---,0.00,VWS V14.00,2013-04-11 04:45:00,
2013-04-10 23:50:00,58.5,49.1,29.79,NNE,24,9.0,9.0,71,0.00,,---,0.00,VWS V14.00,2013-04-11 04:50:00,
2013-04-10 23:55:00,58.4,48.7,29.79,NW,318,8.0,13.0,70,0.00,,---,0.00,VWS V14.00,2013-04-11 04:55:00,